Location: *
(50.2903°S, 172.5375°W)
Time: 11:31:26
(UTC+00:00)

Resurs 1-4 Rocket - Pass Details

Date: 26 February 2020
Orbit: 800 x 814 km, 98.6° (Epoch: 06 April)

Event Time Altitude Azimuth Distance (km) Brightness Sun altitude
Exits shadow 10:49:10 25° 114° (ESE) 1,606 3.7 -29.7°
Maximum altitude 10:49:35 25° 121° (ESE) 1,597 3.7 -29.7°
Drops below altitude 10° 10:53:51 10° 174° (S) 2,420 5.4 -29.9°
Sets 10:56:34 0° 187° (S) 3,357 6.5 -30.0°
